Home   Weather   Boston   Past weeks
Flag for USA

Past Weather in Boston, Massachusetts, USA — March 2019

Now
72 °F

Mostly cloudy.


Feels Like: 73 °F
Forecast: 64 / 60 °F
Wind: 25 mph from Southwest

Location: Logan International Airport

Current Time: Apr 20, 2019 at 12:28:44 pm

Latest Report: Apr 20, 2019 at 12:08 pm


Visibility: 10 mi

Pressure: 29.89 "Hg

Humidity: 76%

Dew Point: 64 °F

Location of BostonLocation

March 2019 Weather in Boston — Graph

°F

High & Low Weather Summary for March 2019

 TemperatureHumidityPressure
High67 °F (Mar 31, 11:54 am)96% (Mar 10, 6:54 pm)30.56 "Hg (Mar 10, 6:54 pm)
Low15 °F (Mar 7, 5:54 am)9% (Mar 25, 3:54 pm)29.05 "Hg (Mar 22, 3:54 pm)
Average39 °F56%30.04 "Hg
* Reported Mar 1 12:54 am — Mar 31 11:54 pm, Boston. Weather by CustomWeather, © 2019

Note: Actual official high and low records may vary slightly from our data, if they occured in-between our weather recording intervals... More about our weather records

Advertising

Boston Weather History for March 1, 2019

Scroll right to see more
 ConditionsComfort  
Time TempWeatherWind HumidityBarometerVisibility
12:54 am
Fri, Mar 1
25 °FPassing clouds.8 mph35%30.31 "Hg10 mi
1:54 am24 °FPassing clouds.9 mph36%30.32 "Hg10 mi
2:54 am24 °FPassing clouds.6 mph36%30.32 "Hg10 mi
3:54 am23 °FPassing clouds.7 mph38%30.32 "Hg10 mi
4:54 am23 °FOvercast.5 mph42%30.34 "Hg10 mi
5:54 am24 °FMostly cloudy.3 mph44%30.34 "Hg10 mi
6:54 am25 °FMostly cloudy.5 mph44%30.37 "Hg10 mi
7:54 am27 °FOvercast.5 mph42%30.39 "Hg10 mi
8:54 am29 °FMore clouds than sun.No wind39%30.40 "Hg10 mi
9:54 am33 °FPassing clouds.5 mph33%30.40 "Hg10 mi
10:54 am33 °FPassing clouds.No wind40%30.38 "Hg10 mi
11:54 am34 °FPassing clouds.5 mph42%30.35 "Hg10 mi
12:54 pm35 °FPassing clouds.7 mph40%30.34 "Hg10 mi
1:54 pm37 °FScattered clouds.8 mph42%30.32 "Hg10 mi
2:54 pm37 °FScattered clouds.13 mph44%30.31 "Hg10 mi
3:54 pm34 °FScattered clouds.16 mph54%30.32 "Hg10 mi
4:54 pm34 °FBroken clouds.13 mph56%30.30 "Hg10 mi
5:54 pm34 °FPartly cloudy.12 mph59%30.30 "Hg10 mi
6:54 pm34 °FPassing clouds.8 mph64%30.31 "Hg10 mi
7:54 pm34 °FPassing clouds.9 mph56%30.31 "Hg10 mi
8:54 pm33 °FPassing clouds.7 mph58%30.30 "Hg10 mi
9:54 pm31 °FPassing clouds.7 mph67%30.29 "Hg10 mi
10:54 pm32 °FOvercast.3 mph64%30.27 "Hg10 mi
11:54 pm32 °FMostly cloudy.No wind69%30.24 "Hg10 mi
Weather by CustomWeather, © 2019

See weather overview